Printer-friendly version

IAU Minor Planet Center

Minor Planet Center

MPEC 2004-K32 : 2004 JA27

The following Minor Planet Electronic Circular may be linked-to from your own Web pages, but must not otherwise be redistributed electronically.


Read MPEC 2004-K31 Read MPEC 2004-K33


M.P.E.C. 2004-K32                                Issued 2004 May 21, 20:21 UT

     The Minor Planet Electronic Circulars contain information on unusual
         minor planets and routine data on comets.  They are published
   on behalf of Commission 20 of the International Astronomical Union by the
          Minor Planet Center, Smithsonian Astrophysical Observatory,
                          Cambridge, MA 02138, U.S.A.

         Supported in part by the Steven and Michele Kirsch Foundation
             Prepared using the Tamkin Foundation Computer Network

                              MPC@CFA.HARVARD.EDU
          URL http://cfa-www.harvard.edu/iau/mpc.html  ISSN 1523-6714

                                   2004 JA27

Observations:
     K04J27A* C2004 05 15.30124 16 26 39.77 -20 33 07.9          19.8   EK032704
     K04J27A  C2004 05 15.32072 16 26 38.38 -20 33 09.3          19.4   EK032704
     K04J27A  C2004 05 15.33989 16 26 37.03 -20 33 09.3          20.0   EK032704
     K04J27A  C2004 05 16.35427 16 25 30.30 -20 33 53.3          19.2   EK032704
     K04J27A  C2004 05 16.36396 16 25 29.58 -20 33 53.2          19.7   EK032704
     K04J27A  C2004 05 16.37366 16 25 28.87 -20 33 53.7          19.7   EK032704
     K04J27A  C2004 05 16.38336 16 25 28.12 -20 33 54.6          19.5   EK032704
     K04J27A  C2004 05 16.39306 16 25 27.45 -20 33 54.9          19.6   EK032704
     K04J27A  C2004 05 19.30753 16 21 54.83 -20 35 48.1          19.5   EK032704
     K04J27A  C2004 05 19.31650 16 21 54.12 -20 35 47.9          19.8   EK032704
     K04J27A  C2004 05 19.33463 16 21 52.53 -20 35 49.2          19.6   EK032704
     K04J27A  C2004 05 19.34370 16 21 51.75 -20 35 49.2          20.1   EK032704
     K04J27A  C2004 05 21.32654 16 19 08.81 -20 36 59.1          18.7   EK032704
     K04J27A  C2004 05 21.33574 16 19 07.92 -20 36 58.6          19.0   EK032704
     K04J27A  C2004 05 21.34502 16 19 07.05 -20 36 59.3          19.4   EK032704
     K04J27A  C2004 05 21.36348 16 19 05.38 -20 36 59.1          19.1   EK032704

Observer details:
704 Lincoln Laboratory ETS, New Mexico.  Observers M. Blythe, F. Shelly,
    M. Bezpalko, R. Huber, L. Manguso, D. Torres, R. Kracke, M. McCleary,
    H. Stange, A. Milner.  Measurers J. Stuart, R. Sayer, J. Evans, J. Kommers.
    1.0-m f/2.15 reflector + CCD.

Orbital elements:
2004 JA27                                                            PHA 0.035
Epoch 2004 May 15.0 TT = JDT 2453140.5                  MPC
M 313.06971              (2000.0)            P               Q
n   0.42943184     Peri.  270.32980     +0.92915277     +0.36765098
a   1.7399625      Node    68.09966     -0.32036166     +0.85312929
e   0.4552343      Incl.    2.39863     -0.18450891     +0.37013939
P   2.30           H   19.0           G   0.15
From 16 observations 2004 May 15-21.

Ephemeris:
2004 JA27                a,e,i = 1.74, 0.46, 2                   q = 0.9479
Date    TT    R. A. (2000) Decl.     Delta      r     Elong.  Phase     V
2004 05 15    16 26.98   -20 32.7    0.490    1.491   166.1     9.4    18.9
2004 05 25    16 13.49   -20 38.5    0.412    1.425   178.8     0.9    18.0
2004 06 04    15 54.38   -20 41.2    0.350    1.358   167.2     9.6    18.0
2004 06 14    15 31.26   -20 40.9    0.303    1.292   152.3    21.4    18.0
2004 06 24    15 07.11   -20 42.9    0.268    1.227   137.2    34.2    18.0
2004 07 04    14 44.91   -20 58.2    0.240    1.164   122.8    47.3    18.0
2004 07 14    14 25.75   -21 37.6    0.214    1.106   109.2    60.3    18.0
2004 07 24    14 08.57   -22 50.1    0.188    1.053    96.3    73.5    18.0
2004 08 03    13 49.06   -24 40.4    0.157    1.009    83.4    87.7    18.1
2004 08 13    13 17.67   -27 00.2    0.125    0.975    68.8   104.3    18.3
2004 08 23    12 14.95   -28 44.7    0.094    0.954    50.4   125.3    19.0
2004 09 02    10 17.98   -24 33.7    0.074    0.948    33.1   144.4    20.7
2004 09 12    08 15.28   -10 42.3    0.078    0.956    48.6   127.8    18.9
2004 09 22    07 04.43   +01 20.5    0.102    0.979    73.2   101.1    17.7
2004 10 02    06 26.36   +08 30.3    0.131    1.014    92.3    80.3    17.4
2004 10 12    05 59.95   +12 56.9    0.160    1.060   108.6    63.1    17.4
2004 10 22    05 35.28   +15 58.7    0.190    1.114   124.5    47.4    17.4
2004 11 01    05 09.61   +18 05.5    0.223    1.173   140.6    32.5    17.5
2004 11 11    04 43.90   +19 27.5    0.263    1.236   156.6    18.5    17.5
2004 11 21    04 21.07   +20 14.0    0.316    1.301   172.0     6.1    17.5
2004 12 01    04 03.88   +20 39.1    0.383    1.368   173.9     4.4    18.0
2004 12 11    03 53.21   +20 55.7    0.466    1.434   161.4    12.7    18.9
2004 12 21    03 48.77   +21 13.0    0.565    1.501   150.2    19.0    19.6
2004 12 31    03 49.62   +21 34.9    0.677    1.566   140.3    23.6    20.2
2005 01 10    03 54.64   +22 01.4    0.802    1.629   131.4    26.9    20.8
2005 01 20    04 02.94   +22 31.5    0.939    1.691   123.2    29.2    21.3
2005 01 30    04 13.77   +23 03.2    1.084    1.751   115.6    30.5    21.7
2005 02 09    04 26.55   +23 34.4    1.236    1.809   108.4    31.2    22.1

Timothy B. Spahr             (C) Copyright 2004 MPC           M.P.E.C. 2004-K32

Read MPEC 2004-K31 Read MPEC 2004-K33


Our Web policy. Index to the CBAT/MPC/ICQ pages.


Valid HTML 4.01!